This is the latest recevied weather packets stored in our database for station/object DH1BUZ-12. If no packets are shown the sender has not sent any weather packets the latest 10 day(s).
| Time | Temp. | Humidity | Pressure | Rain* | Wind** | Luminosity | Snow |
|---|---|---|---|---|---|---|---|
| 1778328566 | 18.89° C | 40% | 1018 hPa | - | - | - | - |
| 1778328500 | 18.89° C | 38% | 1018 hPa | - | - | - | - |
| 1778328434 | 18.89° C | 40% | 1018 hPa | - | - | - | - |
| 1778328369 | 18.89° C | 40% | 1018 hPa | - | - | - | - |
| 1778328303 | 18.33° C | 39% | 1018 hPa | - | - | - | - |
| 1778328238 | 18.89° C | 38% | 1018 hPa | - | - | - | - |
| 1778328172 | 19.44° C | 37% | 1018 hPa | - | - | - | - |
| 1778328107 | 20° C | 37% | 1018 hPa | - | - | - | - |
| 1778328041 | 20° C | 35% | 1018 hPa | - | - | - | - |
| 1778327910 | 20° C | 37% | 1018 hPa | - | - | - | - |
| 1778327844 | 20° C | 37% | 1018 hPa | - | - | - | - |
| 1778327779 | 20° C | 39% | 1018 hPa | - | - | - | - |
| 1778327713 | 20° C | 38% | 1018 hPa | - | - | - | - |
| 1778327648 | 20.56° C | 38% | 1018 hPa | - | - | - | - |
| 1778327582 | 20.56° C | 36% | 1018 hPa | - | - | - | - |
| 1778327516 | 21.11° C | 36% | 1018 hPa | - | - | - | - |
| 1778327451 | 21.11° C | 38% | 1018 hPa | - | - | - | - |
| 1778327385 | 21.11° C | 38% | 1018 hPa | - | - | - | - |
| 1778327320 | 21.67° C | 38% | 1018 hPa | - | - | - | - |
| 1778327189 | 22.22° C | 36% | 1018 hPa | - | - | - | - |
| 1778327123 | 22.22° C | 36% | 1018 hPa | - | - | - | - |
| 1778327057 | 22.22° C | 38% | 1018 hPa | - | - | - | - |
| 1778326992 | 22.22° C | 35% | 1018 hPa | - | - | - | - |
| 1778326926 | 22.22° C | 36% | 1018 hPa | - | - | - | - |
| 1778326861 | 22.22° C | 37% | 1018 hPa | - | - | - | - |
* Rain since midnight (hover to see other rain measurements)
** Current wind speed in m/s (hover to see current wind gust speed)